Year,Month,Day,Hour,Minute,Value (Times are PST for temperature in C)
2018,07,28,00,00,17.50
2018,07,28,00,01,17.50
2018,07,28,00,02,17.50
2018,07,28,00,03,17.50
2018,07,28,00,04,17.50
2018,07,28,00,05,17.50
2018,07,28,00,06,17.50
2018,07,28,00,07,17.50
2018,07,28,00,08,17.50
2018,07,28,00,09,17.40
2018,07,28,00,10,17.40
2018,07,28,00,11,17.40
2018,07,28,00,12,17.40
2018,07,28,00,13,17.40
2018,07,28,00,14,17.40
2018,07,28,00,15,17.40
2018,07,28,00,16,17.40
2018,07,28,00,17,17.40
2018,07,28,00,18,17.40
2018,07,28,00,19,17.40
2018,07,28,00,20,17.40
2018,07,28,00,21,17.40
2018,07,28,00,22,17.40
2018,07,28,00,23,17.40
2018,07,28,00,24,17.30
2018,07,28,00,25,17.30
2018,07,28,00,26,17.30
2018,07,28,00,27,17.30
2018,07,28,00,28,17.30
2018,07,28,00,29,17.30
2018,07,28,00,30,17.20
2018,07,28,00,31,17.20
2018,07,28,00,32,17.20
2018,07,28,00,33,17.20
2018,07,28,00,34,17.20
2018,07,28,00,35,17.20
2018,07,28,00,36,17.10
2018,07,28,00,37,17.10
2018,07,28,00,38,17.10
2018,07,28,00,39,17.10
2018,07,28,00,40,17.10
2018,07,28,00,41,17.10
2018,07,28,00,42,17.00
2018,07,28,00,43,17.00
2018,07,28,00,44,16.90
2018,07,28,00,45,16.90
2018,07,28,00,46,16.90
2018,07,28,00,47,16.90
2018,07,28,00,48,16.80
2018,07,28,00,49,16.80
2018,07,28,00,50,16.80
2018,07,28,00,51,16.80
2018,07,28,00,52,16.70
2018,07,28,00,53,16.70
2018,07,28,00,54,16.70
2018,07,28,00,55,16.70
2018,07,28,00,56,16.70
2018,07,28,00,57,16.60
2018,07,28,00,58,16.60
2018,07,28,00,59,16.60
2018,07,28,01,00,16.60
2018,07,28,01,01,16.60
2018,07,28,01,02,16.60
2018,07,28,01,03,16.50
2018,07,28,01,04,16.50
2018,07,28,01,05,16.50
2018,07,28,01,06,16.50
2018,07,28,01,07,16.40
2018,07,28,01,08,16.40
2018,07,28,01,09,16.40
2018,07,28,01,10,16.40
2018,07,28,01,11,16.40
2018,07,28,01,12,16.40
2018,07,28,01,13,16.40
2018,07,28,01,14,16.30
2018,07,28,01,15,16.30
2018,07,28,01,16,16.30
2018,07,28,01,17,16.30
2018,07,28,01,18,16.30
2018,07,28,01,19,16.30
2018,07,28,01,20,16.30
2018,07,28,01,21,16.30
2018,07,28,01,22,16.30
2018,07,28,01,23,16.30
2018,07,28,01,24,16.30
2018,07,28,01,25,16.30
2018,07,28,01,26,16.30
2018,07,28,01,27,16.30
2018,07,28,01,28,16.30
2018,07,28,01,29,16.30
2018,07,28,01,30,16.30
2018,07,28,01,31,16.30
2018,07,28,01,32,16.30
2018,07,28,01,33,16.30
2018,07,28,01,34,16.30
2018,07,28,01,35,16.30
2018,07,28,01,36,16.30
2018,07,28,01,37,16.30
2018,07,28,01,38,16.30
2018,07,28,01,39,16.30
2018,07,28,01,40,16.30
2018,07,28,01,41,16.30
2018,07,28,01,42,16.30
2018,07,28,01,43,16.30
2018,07,28,01,44,16.30
2018,07,28,01,45,16.30
2018,07,28,01,46,16.30
2018,07,28,01,47,16.30
2018,07,28,01,48,16.30
2018,07,28,01,49,16.30
2018,07,28,01,50,16.30
2018,07,28,01,51,16.30
2018,07,28,01,52,16.30
2018,07,28,01,53,16.40
2018,07,28,01,54,16.40
2018,07,28,01,55,16.40
2018,07,28,01,56,16.40
2018,07,28,01,57,16.40
2018,07,28,01,58,16.40
2018,07,28,01,59,16.40
2018,07,28,02,00,16.40
2018,07,28,02,01,16.40
2018,07,28,02,02,16.50
2018,07,28,02,03,16.50
2018,07,28,02,04,16.50
2018,07,28,02,05,16.50
2018,07,28,02,06,16.60
2018,07,28,02,07,16.60
2018,07,28,02,08,16.60
2018,07,28,02,09,16.60
2018,07,28,02,10,16.60
2018,07,28,02,11,16.60
2018,07,28,02,12,16.70
2018,07,28,02,13,16.70
2018,07,28,02,14,16.70
2018,07,28,02,15,16.70
2018,07,28,02,16,16.70
2018,07,28,02,17,16.70
2018,07,28,02,18,16.70
2018,07,28,02,19,16.70
2018,07,28,02,20,16.70
2018,07,28,02,21,16.70
2018,07,28,02,22,16.70
2018,07,28,02,23,16.70
2018,07,28,02,24,16.70
2018,07,28,02,25,16.60
2018,07,28,02,26,16.60
2018,07,28,02,27,16.60
2018,07,28,02,28,16.60
2018,07,28,02,29,16.60
2018,07,28,02,30,16.60
2018,07,28,02,31,16.60
2018,07,28,02,32,16.60
2018,07,28,02,33,16.60
2018,07,28,02,34,16.60
2018,07,28,02,35,16.60
2018,07,28,02,36,16.60
2018,07,28,02,37,16.60
2018,07,28,02,38,16.60
2018,07,28,02,39,16.60
2018,07,28,02,40,16.60
2018,07,28,02,41,16.60
2018,07,28,02,42,16.50
2018,07,28,02,43,16.50
2018,07,28,02,44,16.40
2018,07,28,02,45,16.40
2018,07,28,02,46,16.40
2018,07,28,02,47,16.40
2018,07,28,02,48,16.40
2018,07,28,02,49,16.40
2018,07,28,02,50,16.40
2018,07,28,02,51,16.40
2018,07,28,02,52,16.40
2018,07,28,02,53,16.30
2018,07,28,02,54,16.30
2018,07,28,02,55,16.30
2018,07,28,02,56,16.20
2018,07,28,02,57,16.20
2018,07,28,02,58,16.10
2018,07,28,02,59,16.10
2018,07,28,03,00,16.10
2018,07,28,03,01,16.00
2018,07,28,03,02,15.90
2018,07,28,03,03,15.90
2018,07,28,03,04,15.80
2018,07,28,03,05,15.80
2018,07,28,03,06,15.70
2018,07,28,03,07,15.70
2018,07,28,03,08,15.70
2018,07,28,03,09,15.60
2018,07,28,03,10,15.50
2018,07,28,03,11,15.50
2018,07,28,03,12,15.40
2018,07,28,03,13,15.40
2018,07,28,03,14,15.30
2018,07,28,03,15,15.20
2018,07,28,03,16,15.20
2018,07,28,03,17,15.10
2018,07,28,03,18,15.00
2018,07,28,03,19,15.00
2018,07,28,03,20,14.90
2018,07,28,03,21,14.80
2018,07,28,03,22,14.80
2018,07,28,03,23,14.80
2018,07,28,03,24,14.70
2018,07,28,03,25,14.70
2018,07,28,03,26,14.60
2018,07,28,03,27,14.60
2018,07,28,03,28,14.50
2018,07,28,03,29,14.50
2018,07,28,03,30,14.40
2018,07,28,03,31,14.40
2018,07,28,03,32,14.40
2018,07,28,03,33,14.40
2018,07,28,03,34,14.30
2018,07,28,03,35,14.30
2018,07,28,03,36,14.30
2018,07,28,03,37,14.30
2018,07,28,03,38,14.20
2018,07,28,03,39,14.20
2018,07,28,03,40,14.20
2018,07,28,03,41,14.20
2018,07,28,03,42,14.20
2018,07,28,03,43,14.20
2018,07,28,03,44,14.20
2018,07,28,03,45,14.20
2018,07,28,03,46,14.20
2018,07,28,03,47,14.10
2018,07,28,03,48,14.10
2018,07,28,03,49,14.10
2018,07,28,03,50,14.10
2018,07,28,03,51,14.10
2018,07,28,03,52,14.10
2018,07,28,03,53,14.10
2018,07,28,03,54,14.10
2018,07,28,03,55,14.10
2018,07,28,03,56,14.10
2018,07,28,03,57,14.10
2018,07,28,03,58,14.10
2018,07,28,03,59,14.10
2018,07,28,04,00,14.10
2018,07,28,04,01,14.10
2018,07,28,04,02,14.10
2018,07,28,04,03,14.10
2018,07,28,04,04,14.10
2018,07,28,04,08,14.10
2018,07,28,04,09,14.10
2018,07,28,04,10,14.10
2018,07,28,04,11,14.10
2018,07,28,04,12,14.10
2018,07,28,04,13,14.10
2018,07,28,04,14,14.10
2018,07,28,04,15,14.10
2018,07,28,04,16,14.10
2018,07,28,04,17,14.00
2018,07,28,04,18,14.00
2018,07,28,04,19,14.00
2018,07,28,04,20,14.00
2018,07,28,04,21,14.00
2018,07,28,04,22,13.90
2018,07,28,04,23,13.90
2018,07,28,04,24,13.90
2018,07,28,04,25,13.90
2018,07,28,04,26,13.90
2018,07,28,04,27,13.90
2018,07,28,04,28,13.90
2018,07,28,04,29,13.90
2018,07,28,04,30,13.90
2018,07,28,04,31,13.90
2018,07,28,04,32,13.90
2018,07,28,04,33,13.90
2018,07,28,04,34,13.90
2018,07,28,04,35,13.90
2018,07,28,04,36,13.90
2018,07,28,04,37,13.90
2018,07,28,04,38,13.90
2018,07,28,04,39,13.90
2018,07,28,04,40,13.90
2018,07,28,04,41,13.90
2018,07,28,04,42,13.90
2018,07,28,04,43,13.90
2018,07,28,04,44,13.90
2018,07,28,04,45,13.90
2018,07,28,04,46,13.90
2018,07,28,04,47,13.90
2018,07,28,04,48,13.90
2018,07,28,04,49,13.90
2018,07,28,04,50,13.90
2018,07,28,04,51,13.90
2018,07,28,04,52,13.90
2018,07,28,04,53,13.90
2018,07,28,04,54,13.80
2018,07,28,04,55,13.80
2018,07,28,04,56,13.80
2018,07,28,04,57,13.80
2018,07,28,04,58,13.90
2018,07,28,04,59,13.90
2018,07,28,05,00,13.90
2018,07,28,05,01,13.90
2018,07,28,05,02,14.00
2018,07,28,05,03,14.00
2018,07,28,05,04,14.00
2018,07,28,05,05,14.00
2018,07,28,05,06,13.90
2018,07,28,05,07,13.90
2018,07,28,05,08,13.90
2018,07,28,05,09,13.90
2018,07,28,05,10,13.90
2018,07,28,05,11,13.90
2018,07,28,05,12,13.90
2018,07,28,05,13,13.90
2018,07,28,05,14,13.90
2018,07,28,05,15,13.90
2018,07,28,05,16,13.90
2018,07,28,05,17,13.90
2018,07,28,05,18,13.90
2018,07,28,05,19,13.90
2018,07,28,05,20,13.90
2018,07,28,05,21,13.90
2018,07,28,05,22,13.90
2018,07,28,05,23,13.90
2018,07,28,05,24,13.90
2018,07,28,05,25,13.90
2018,07,28,05,26,13.90
2018,07,28,05,27,13.90
2018,07,28,05,28,13.90
2018,07,28,05,29,13.90
2018,07,28,05,30,13.90
2018,07,28,05,31,13.90
2018,07,28,05,32,13.90
2018,07,28,05,33,13.90
2018,07,28,05,34,13.90
2018,07,28,05,35,13.90
2018,07,28,05,36,13.90
2018,07,28,05,37,13.90
2018,07,28,05,38,13.90
2018,07,28,05,39,13.90
2018,07,28,05,40,14.00
2018,07,28,05,41,14.00
2018,07,28,05,42,14.00
2018,07,28,05,43,14.00
2018,07,28,05,44,14.00
2018,07,28,05,45,14.10
2018,07,28,05,46,14.10
2018,07,28,05,47,14.10
2018,07,28,05,48,14.10
2018,07,28,05,49,14.10
2018,07,28,05,50,14.10
2018,07,28,05,51,14.00
2018,07,28,05,52,14.00
2018,07,28,05,53,14.00
2018,07,28,05,54,14.00
2018,07,28,05,55,14.00
2018,07,28,05,56,14.00
2018,07,28,05,57,14.00
2018,07,28,05,58,14.00
2018,07,28,05,59,14.10
2018,07,28,06,00,14.10
2018,07,28,06,01,14.10
2018,07,28,06,02,14.10
2018,07,28,06,03,14.10
2018,07,28,06,04,14.10
2018,07,28,06,05,14.10
2018,07,28,06,06,14.20
2018,07,28,06,07,14.20
2018,07,28,06,08,14.20
2018,07,28,06,09,14.20
2018,07,28,06,10,14.10
2018,07,28,06,11,14.10
2018,07,28,06,12,14.10
2018,07,28,06,13,14.10
2018,07,28,06,14,14.10
2018,07,28,06,15,14.10
2018,07,28,06,16,14.10
2018,07,28,06,17,14.10
2018,07,28,06,18,14.10
2018,07,28,06,19,14.10
2018,07,28,06,20,14.10
2018,07,28,06,21,14.10
2018,07,28,06,22,14.10
2018,07,28,06,23,14.10
2018,07,28,06,24,14.10
2018,07,28,06,25,14.10
2018,07,28,06,26,14.10
2018,07,28,06,27,14.10
2018,07,28,06,28,14.10
2018,07,28,06,29,14.10
2018,07,28,06,30,14.10
2018,07,28,06,31,14.10
2018,07,28,06,32,14.10
2018,07,28,06,33,14.10
2018,07,28,06,34,14.10
2018,07,28,06,35,14.10
2018,07,28,06,36,14.00
2018,07,28,06,37,14.00
2018,07,28,06,38,14.00
2018,07,28,06,39,14.00
2018,07,28,06,40,14.00
2018,07,28,06,41,14.00
2018,07,28,06,42,14.00
2018,07,28,06,43,14.00
2018,07,28,06,44,14.00
2018,07,28,06,45,14.00
2018,07,28,06,46,14.00
2018,07,28,06,47,14.00
2018,07,28,06,48,14.00
2018,07,28,06,49,14.00
2018,07,28,06,50,14.10
2018,07,28,06,51,14.10
2018,07,28,06,52,14.10
2018,07,28,06,53,14.20
2018,07,28,06,54,14.20
2018,07,28,06,55,14.20
2018,07,28,06,56,14.20
2018,07,28,06,57,14.20
2018,07,28,06,58,14.30
2018,07,28,06,59,14.30
2018,07,28,07,00,14.30
2018,07,28,07,01,14.40
2018,07,28,07,02,14.40
2018,07,28,07,03,14.40
2018,07,28,07,04,14.50
2018,07,28,07,05,14.50
2018,07,28,07,06,14.60
2018,07,28,07,07,14.60
2018,07,28,07,08,14.70
2018,07,28,07,09,14.70
2018,07,28,07,10,14.80
2018,07,28,07,11,14.80
2018,07,28,07,12,14.90
2018,07,28,07,13,14.90
2018,07,28,07,14,15.00
2018,07,28,07,15,15.10
2018,07,28,07,16,15.10
2018,07,28,07,17,15.20
2018,07,28,07,18,15.30
2018,07,28,07,19,15.30
2018,07,28,07,20,15.40
2018,07,28,07,21,15.40
2018,07,28,07,22,15.50
2018,07,28,07,23,15.50
2018,07,28,07,24,15.60
2018,07,28,07,25,15.60
2018,07,28,07,26,15.60
2018,07,28,07,27,15.70
2018,07,28,07,28,15.70
2018,07,28,07,29,15.80
2018,07,28,07,30,15.80
2018,07,28,07,31,15.80
2018,07,28,07,32,15.90
2018,07,28,07,33,15.90
2018,07,28,07,34,16.00
2018,07,28,07,35,16.00
2018,07,28,07,36,16.10
2018,07,28,07,37,16.10
2018,07,28,07,38,16.20
2018,07,28,07,39,16.20
2018,07,28,07,40,16.20
2018,07,28,07,41,16.30
2018,07,28,07,42,16.30
2018,07,28,07,43,16.40
2018,07,28,07,44,16.40
2018,07,28,07,45,16.50
2018,07,28,07,46,16.50
2018,07,28,07,47,16.60
2018,07,28,07,48,16.70
2018,07,28,07,49,16.70
2018,07,28,07,50,16.80
2018,07,28,07,51,16.80
2018,07,28,07,52,16.90
2018,07,28,07,53,16.90
2018,07,28,07,54,17.00
2018,07,28,07,55,17.00
2018,07,28,07,56,17.10
2018,07,28,07,57,17.10
2018,07,28,07,58,17.20
2018,07,28,07,59,17.30
2018,07,28,08,00,17.30
2018,07,28,08,01,17.30
2018,07,28,08,02,17.40
2018,07,28,08,03,17.40
2018,07,28,08,04,17.40
2018,07,28,08,05,17.50
2018,07,28,08,06,17.50
2018,07,28,08,07,17.60
2018,07,28,08,08,17.70
2018,07,28,08,09,17.70
2018,07,28,08,10,17.80
2018,07,28,08,11,17.90
2018,07,28,08,12,18.00
2018,07,28,08,13,18.00
2018,07,28,08,14,18.10
2018,07,28,08,15,18.20
2018,07,28,08,16,18.30
2018,07,28,08,17,18.50
2018,07,28,08,18,18.60
2018,07,28,08,19,18.70
2018,07,28,08,20,18.80
2018,07,28,08,21,18.90
2018,07,28,08,22,19.00
2018,07,28,08,23,19.10
2018,07,28,08,24,19.10
2018,07,28,08,25,19.10
2018,07,28,08,26,19.00
2018,07,28,08,27,19.00
2018,07,28,08,28,18.90
2018,07,28,08,29,18.80
2018,07,28,08,30,18.80
2018,07,28,08,31,18.70
2018,07,28,08,32,18.60
2018,07,28,08,33,18.50
2018,07,28,08,34,18.40
2018,07,28,08,35,18.30
2018,07,28,08,36,18.20
2018,07,28,08,37,18.00
2018,07,28,08,38,17.90
2018,07,28,08,39,17.80
2018,07,28,08,40,17.60
2018,07,28,08,41,17.50
2018,07,28,08,42,17.30
2018,07,28,08,43,17.20
2018,07,28,08,44,17.10
2018,07,28,08,45,17.10
2018,07,28,08,46,17.00
2018,07,28,08,47,17.00
2018,07,28,08,48,16.90
2018,07,28,08,49,16.80
2018,07,28,08,50,16.70
2018,07,28,08,51,16.70
2018,07,28,08,52,16.70
2018,07,28,08,53,16.70
2018,07,28,08,54,16.70
2018,07,28,08,55,16.70
2018,07,28,08,56,16.80
2018,07,28,08,57,16.90
2018,07,28,08,58,17.00
2018,07,28,08,59,17.10
2018,07,28,09,00,17.20
2018,07,28,09,01,17.30
2018,07,28,09,02,17.40
2018,07,28,09,03,17.50
2018,07,28,09,04,17.60
2018,07,28,09,05,17.70
2018,07,28,09,06,17.80
2018,07,28,09,07,17.90
2018,07,28,09,08,18.00
2018,07,28,09,09,18.10
2018,07,28,09,10,18.10
2018,07,28,09,11,18.20
2018,07,28,09,12,18.20
2018,07,28,09,13,18.30
2018,07,28,09,14,18.40
2018,07,28,09,15,18.40
2018,07,28,09,16,18.50
2018,07,28,09,17,18.50
2018,07,28,09,18,18.60
2018,07,28,09,19,18.60
2018,07,28,09,20,18.50
2018,07,28,09,21,18.50
2018,07,28,09,22,18.40
2018,07,28,09,23,18.40
2018,07,28,09,24,18.40
2018,07,28,09,25,18.40
2018,07,28,09,26,18.40
2018,07,28,09,27,18.40
2018,07,28,09,28,18.40
2018,07,28,09,29,18.40
2018,07,28,09,30,18.40
2018,07,28,09,31,18.40
2018,07,28,09,32,18.30
2018,07,28,09,33,18.30
2018,07,28,09,34,18.30
2018,07,28,09,35,18.20
2018,07,28,09,36,18.20
2018,07,28,09,37,18.30
2018,07,28,09,38,18.30
2018,07,28,09,39,18.30
2018,07,28,09,40,18.40
2018,07,28,09,41,18.40
2018,07,28,09,42,18.50
2018,07,28,09,43,18.50
2018,07,28,09,44,18.60
2018,07,28,09,45,18.60
2018,07,28,09,46,18.70
2018,07,28,09,47,18.70
2018,07,28,09,48,18.70
2018,07,28,09,49,18.70
2018,07,28,09,50,18.80
2018,07,28,09,51,18.90
2018,07,28,09,52,18.90
2018,07,28,09,53,18.90
2018,07,28,09,54,18.90
2018,07,28,09,55,19.00
2018,07,28,09,56,19.00
2018,07,28,09,57,19.00
2018,07,28,09,58,19.10
2018,07,28,09,59,19.10
2018,07,28,10,00,19.10
2018,07,28,10,01,19.10
2018,07,28,10,02,19.10
2018,07,28,10,03,19.10
2018,07,28,10,04,19.10
2018,07,28,10,05,19.10
2018,07,28,10,06,19.10
2018,07,28,10,07,19.10
2018,07,28,10,08,19.10
2018,07,28,10,09,19.00
2018,07,28,10,10,18.90
2018,07,28,10,11,18.80
2018,07,28,10,12,18.80
2018,07,28,10,13,18.70
2018,07,28,10,14,18.70
2018,07,28,10,15,18.70
2018,07,28,10,16,18.70
2018,07,28,10,17,18.70
2018,07,28,10,18,18.60
2018,07,28,10,19,18.60
2018,07,28,10,20,18.50
2018,07,28,10,21,18.40
2018,07,28,10,22,18.30
2018,07,28,10,23,18.20
2018,07,28,10,24,18.10
2018,07,28,10,25,18.00
2018,07,28,10,26,17.80
2018,07,28,10,27,17.70
2018,07,28,10,28,17.60
2018,07,28,10,29,17.50
2018,07,28,10,30,17.40
2018,07,28,10,31,17.40
2018,07,28,10,32,17.40
2018,07,28,10,33,17.50
2018,07,28,10,34,17.50
2018,07,28,10,35,17.60
2018,07,28,10,36,17.70
2018,07,28,10,37,17.70
2018,07,28,10,38,17.80
2018,07,28,10,39,17.90
2018,07,28,10,40,18.00
2018,07,28,10,41,18.10
2018,07,28,10,42,18.20
2018,07,28,10,43,18.30
2018,07,28,10,44,18.40
2018,07,28,10,45,18.40
2018,07,28,10,46,18.50
2018,07,28,10,47,18.60
2018,07,28,10,48,18.70
2018,07,28,10,49,18.70
2018,07,28,10,50,18.70
2018,07,28,10,51,18.70
2018,07,28,10,52,18.70
2018,07,28,10,53,18.70
2018,07,28,10,54,18.60
2018,07,28,10,55,18.60
2018,07,28,10,56,18.50
2018,07,28,10,57,18.40
2018,07,28,10,58,18.40
2018,07,28,10,59,18.40
2018,07,28,11,00,18.40
2018,07,28,11,01,18.40
2018,07,28,11,02,18.40
2018,07,28,11,03,18.40
2018,07,28,11,04,18.50
2018,07,28,11,05,18.50
2018,07,28,11,06,18.60
2018,07,28,11,07,18.50
2018,07,28,11,08,18.50
2018,07,28,11,09,18.50
2018,07,28,11,10,18.50
2018,07,28,11,11,18.50
2018,07,28,11,12,18.50
2018,07,28,11,13,18.50
2018,07,28,11,14,18.50
2018,07,28,11,15,18.50
2018,07,28,11,16,18.60
2018,07,28,11,17,18.70
2018,07,28,11,18,18.80
2018,07,28,11,19,18.90
2018,07,28,11,20,18.90
2018,07,28,11,21,19.00
2018,07,28,11,22,19.00
2018,07,28,11,23,19.10
2018,07,28,11,24,19.10
2018,07,28,11,25,19.20
2018,07,28,11,26,19.20
2018,07,28,11,27,19.20
2018,07,28,11,28,19.20
2018,07,28,11,29,19.30
2018,07,28,11,30,19.30
2018,07,28,11,31,19.30
2018,07,28,11,32,19.40
2018,07,28,11,33,19.50
2018,07,28,11,34,19.50
2018,07,28,11,35,19.60
2018,07,28,11,36,19.60
2018,07,28,11,37,19.60
2018,07,28,11,38,19.60
2018,07,28,11,39,19.50
2018,07,28,11,40,19.50
2018,07,28,11,41,19.40
2018,07,28,11,42,19.30
2018,07,28,11,43,19.10
2018,07,28,11,44,19.00
2018,07,28,11,45,19.00
2018,07,28,11,46,18.90
2018,07,28,11,47,18.80
2018,07,28,11,48,18.70
2018,07,28,11,49,18.70
2018,07,28,11,50,18.60
2018,07,28,11,51,18.60
2018,07,28,11,52,18.70
2018,07,28,11,53,18.70
2018,07,28,11,54,18.80
2018,07,28,11,55,18.90
2018,07,28,11,56,19.00
2018,07,28,11,57,19.20
2018,07,28,11,58,19.30
2018,07,28,11,59,19.40
2018,07,28,12,00,19.50
2018,07,28,12,01,19.60
2018,07,28,12,02,19.60
2018,07,28,12,03,19.70
2018,07,28,12,04,19.80
2018,07,28,12,05,19.90
2018,07,28,12,06,19.90
2018,07,28,12,07,19.90
2018,07,28,12,08,19.90
2018,07,28,12,09,19.90
2018,07,28,12,10,20.00
2018,07,28,12,11,20.10
2018,07,28,12,12,20.10
2018,07,28,12,13,20.30
2018,07,28,12,14,20.40
2018,07,28,12,15,20.40
2018,07,28,12,16,20.50
2018,07,28,12,17,20.60
2018,07,28,12,18,20.60
2018,07,28,12,19,20.70
2018,07,28,12,20,20.70
2018,07,28,12,21,20.80
2018,07,28,12,22,20.80
2018,07,28,12,23,20.90
2018,07,28,12,24,21.00
2018,07,28,12,25,21.00
2018,07,28,12,26,21.10
2018,07,28,12,27,21.10
2018,07,28,12,28,21.10
2018,07,28,12,29,21.20
2018,07,28,12,30,21.10
2018,07,28,12,31,21.10
2018,07,28,12,32,21.10
2018,07,28,12,33,21.10
2018,07,28,12,34,21.10
2018,07,28,12,35,21.20
2018,07,28,12,36,21.30
2018,07,28,12,37,21.30
2018,07,28,12,38,21.30
2018,07,28,12,39,21.20
2018,07,28,12,40,21.20
2018,07,28,12,41,21.20
2018,07,28,12,42,21.20
2018,07,28,12,43,21.20
2018,07,28,12,44,21.20
2018,07,28,12,45,21.30
2018,07,28,12,46,21.30
2018,07,28,12,47,21.20
2018,07,28,12,48,21.20
2018,07,28,12,49,21.10
2018,07,28,12,50,20.90
2018,07,28,12,51,20.80
2018,07,28,12,52,20.70
2018,07,28,12,53,20.60
2018,07,28,12,54,20.50
2018,07,28,12,55,20.30
2018,07,28,12,56,20.20
2018,07,28,12,57,20.10
2018,07,28,12,58,20.00
2018,07,28,12,59,19.90
2018,07,28,13,00,19.70
2018,07,28,13,01,19.60
2018,07,28,13,02,19.60
2018,07,28,13,03,19.60
2018,07,28,13,04,19.60
2018,07,28,13,05,19.50
2018,07,28,13,06,19.40
2018,07,28,13,07,19.30
2018,07,28,13,08,19.20
2018,07,28,13,09,19.10
2018,07,28,13,10,19.00
2018,07,28,13,11,18.90
2018,07,28,13,12,18.90
2018,07,28,13,13,19.00
2018,07,28,13,14,19.10
2018,07,28,13,15,19.30
2018,07,28,13,16,19.40
2018,07,28,13,17,19.50
2018,07,28,13,18,19.60
2018,07,28,13,19,19.60
2018,07,28,13,20,19.50
2018,07,28,13,21,19.40
2018,07,28,13,22,19.30
2018,07,28,13,23,19.20
2018,07,28,13,24,19.10
2018,07,28,13,25,19.10
2018,07,28,13,26,19.10
2018,07,28,13,27,19.10
2018,07,28,13,28,19.20
2018,07,28,13,29,19.30
2018,07,28,13,30,19.40
2018,07,28,13,31,19.50
2018,07,28,13,32,19.70
2018,07,28,13,33,19.90
2018,07,28,13,34,20.10
2018,07,28,13,35,20.30
2018,07,28,13,36,20.50
2018,07,28,13,37,20.70
2018,07,28,13,38,20.90
2018,07,28,13,39,21.10
2018,07,28,13,40,21.20
2018,07,28,13,41,21.30
2018,07,28,13,42,21.50
2018,07,28,13,43,21.60
2018,07,28,13,44,21.60
2018,07,28,13,45,21.70
2018,07,28,13,46,21.80
2018,07,28,13,47,21.90
2018,07,28,13,48,21.90
2018,07,28,13,49,21.90
2018,07,28,13,50,21.90
2018,07,28,13,51,21.90
2018,07,28,13,52,21.90
2018,07,28,13,53,21.90
2018,07,28,13,54,21.80
2018,07,28,13,55,21.80
2018,07,28,13,56,21.80
2018,07,28,13,57,21.80
2018,07,28,13,58,21.90
2018,07,28,13,59,21.90
2018,07,28,14,00,22.00
2018,07,28,14,01,22.00
2018,07,28,14,02,22.00
2018,07,28,14,03,21.90
2018,07,28,14,04,21.90
2018,07,28,14,05,21.80
2018,07,28,14,06,21.80
2018,07,28,14,07,21.80
2018,07,28,14,08,21.90
2018,07,28,14,09,21.90
2018,07,28,14,10,21.90
2018,07,28,14,11,21.90
2018,07,28,14,12,21.90
2018,07,28,14,13,22.00
2018,07,28,14,14,22.00
2018,07,28,14,15,22.10
2018,07,28,14,16,22.10
2018,07,28,14,17,22.10
2018,07,28,14,18,22.10
2018,07,28,14,19,22.10
2018,07,28,14,20,22.00
2018,07,28,14,21,22.00
2018,07,28,14,22,21.90
2018,07,28,14,23,21.90
2018,07,28,14,24,22.00
2018,07,28,14,25,22.10
2018,07,28,14,26,22.10
2018,07,28,14,27,22.20
2018,07,28,14,28,22.30
2018,07,28,14,29,22.30
2018,07,28,14,30,22.40
2018,07,28,14,31,22.40
2018,07,28,14,32,22.50
2018,07,28,14,33,22.50
2018,07,28,14,34,22.60
2018,07,28,14,35,22.60
2018,07,28,14,36,22.60
2018,07,28,14,37,22.60
2018,07,28,14,38,22.60
2018,07,28,14,39,22.70
2018,07,28,14,40,22.80
2018,07,28,14,41,22.90
2018,07,28,14,42,23.00
2018,07,28,14,43,23.10
2018,07,28,14,44,23.20
2018,07,28,14,45,23.20
2018,07,28,14,46,23.20
2018,07,28,14,47,23.30
2018,07,28,14,48,23.40
2018,07,28,14,49,23.50
2018,07,28,14,50,23.60
2018,07,28,14,51,23.60
2018,07,28,14,52,23.70
2018,07,28,14,53,23.80
2018,07,28,14,54,23.80
2018,07,28,14,55,23.90
2018,07,28,14,56,23.90
2018,07,28,14,57,23.90
2018,07,28,14,58,23.90
2018,07,28,14,59,23.90
2018,07,28,15,00,23.90
2018,07,28,15,01,23.90
2018,07,28,15,02,23.90
2018,07,28,15,03,24.00
2018,07,28,15,04,24.00
2018,07,28,15,05,24.00
2018,07,28,15,06,24.00
2018,07,28,15,07,24.00
2018,07,28,15,08,24.00
2018,07,28,15,09,24.00
2018,07,28,15,10,23.90
2018,07,28,15,11,23.90
2018,07,28,15,12,24.00
2018,07,28,15,13,24.00
2018,07,28,15,14,24.00
2018,07,28,15,15,24.00
2018,07,28,15,16,24.00
2018,07,28,15,17,24.00
2018,07,28,15,18,24.00
2018,07,28,15,19,24.10
2018,07,28,15,20,24.20
2018,07,28,15,21,24.20
2018,07,28,15,22,24.30
2018,07,28,15,23,24.30
2018,07,28,15,24,24.40
2018,07,28,15,25,24.40
2018,07,28,15,26,24.50
2018,07,28,15,27,24.50
2018,07,28,15,28,24.50
2018,07,28,15,29,24.50
2018,07,28,15,30,24.60
2018,07,28,15,31,24.60
2018,07,28,15,32,24.70
2018,07,28,15,33,24.80
2018,07,28,15,34,24.80
2018,07,28,15,35,24.80
2018,07,28,15,36,24.80
2018,07,28,15,37,24.90
2018,07,28,15,38,24.90
2018,07,28,15,39,25.00
2018,07,28,15,40,25.00
2018,07,28,15,41,25.10
2018,07,28,15,42,25.20
2018,07,28,15,43,25.20
2018,07,28,15,44,25.20
2018,07,28,15,45,25.20
2018,07,28,15,46,25.20
2018,07,28,15,47,25.20
2018,07,28,15,48,25.20
2018,07,28,15,49,25.20
2018,07,28,15,50,25.20
2018,07,28,15,51,25.30
2018,07,28,15,52,25.30
2018,07,28,15,53,25.30
2018,07,28,15,54,25.30
2018,07,28,15,55,25.40
2018,07,28,15,56,25.40
2018,07,28,15,57,25.40
2018,07,28,15,58,25.40
2018,07,28,15,59,25.40
2018,07,28,16,00,25.40
2018,07,28,16,01,25.40
2018,07,28,16,02,25.40
2018,07,28,16,03,25.40
2018,07,28,16,04,25.40
2018,07,28,16,05,25.50
2018,07,28,16,06,25.50
2018,07,28,16,07,25.50
2018,07,28,16,08,25.40
2018,07,28,16,09,25.40
2018,07,28,16,10,25.30
2018,07,28,16,11,25.30
2018,07,28,16,12,25.30
2018,07,28,16,13,25.30
2018,07,28,16,14,25.30
2018,07,28,16,15,25.30
2018,07,28,16,16,25.40
2018,07,28,16,17,25.40
2018,07,28,16,18,25.40
2018,07,28,16,19,25.40
2018,07,28,16,20,25.40
2018,07,28,16,21,25.40
2018,07,28,16,22,25.40
2018,07,28,16,23,25.50
2018,07,28,16,24,25.50
2018,07,28,16,25,25.60
2018,07,28,16,26,25.70
2018,07,28,16,27,25.80
2018,07,28,16,28,25.90
2018,07,28,16,29,26.00
2018,07,28,16,30,26.10
2018,07,28,16,31,26.20
2018,07,28,16,32,26.30
2018,07,28,16,33,26.40
2018,07,28,16,34,26.50
2018,07,28,16,35,26.60
2018,07,28,16,36,26.70
2018,07,28,16,37,26.70
2018,07,28,16,38,26.70
2018,07,28,16,39,26.70
2018,07,28,16,40,26.70
2018,07,28,16,41,26.70
2018,07,28,16,42,26.70
2018,07,28,16,43,26.80
2018,07,28,16,44,26.80
2018,07,28,16,45,26.80
2018,07,28,16,46,26.90
2018,07,28,16,47,26.90
2018,07,28,16,48,26.90
2018,07,28,16,49,27.00
2018,07,28,16,50,27.00
2018,07,28,16,51,27.10
2018,07,28,16,52,27.10
2018,07,28,16,53,27.20
2018,07,28,16,54,27.20
2018,07,28,16,55,27.20
2018,07,28,16,56,27.20
2018,07,28,16,57,27.20
2018,07,28,16,58,27.20
2018,07,28,16,59,27.20
2018,07,28,17,00,27.20
2018,07,28,17,01,27.20
2018,07,28,17,02,27.30
2018,07,28,17,03,27.30
2018,07,28,17,04,27.30
2018,07,28,17,05,27.30
2018,07,28,17,06,27.30
2018,07,28,17,07,27.30
2018,07,28,17,08,27.30
2018,07,28,17,09,27.30
2018,07,28,17,10,27.30
2018,07,28,17,11,27.20
2018,07,28,17,12,27.20
2018,07,28,17,13,27.20
2018,07,28,17,14,27.20
2018,07,28,17,15,27.20
2018,07,28,17,16,27.20
2018,07,28,17,17,27.20
2018,07,28,17,18,27.20
2018,07,28,17,19,27.20
2018,07,28,17,20,27.20
2018,07,28,17,21,27.20
2018,07,28,17,22,27.20